Location: Cabeza de los Veneras
(40.2000°N, 5.2000°W)
Time: 12:29:12
(UTC+00:00)

Atlas Centaur 2 - Pass Details

Date: 18 April 2024
Orbit: 458 x 1278 km, 30.4° (Epoch: 26 May)

Event Time Altitude Azimuth Distance (km) Brightness Sun altitude
Rises 19:26:25 0° 227° (SW) 3,578 5.9 -5.1°
Reaches altitude 10° 19:30:00 10° 211° (SSW) 2,457 4.8 -5.7°
Maximum altitude 19:33:55 19° 168° (SSE) 1,730 3.6 -6.4°
Drops below altitude 10° 19:37:19 10° 124° (SE) 2,083 3.6 -7.0°
Enters shadow 19:37:46 - 120° (ESE) 2,189 3.7 -7.1°
